Weather History for LPMT - October, 2012

Change the Weather History Date:

Thursday, October 4, 2012

  Actual Average (LPPT) Record (LPPT)
Temperature  
Mean Temperature 67 °F -  
Max Temperature 81 °F 75 °F - (-1)
Min Temperature 53 °F 60 °F - (-1)
Cooling Degree Days 2    
Growing Degree Days 17 (Base 50)    
Moisture  
Dew Point 54 °F    
Average Humidity 67    
Maximum Humidity 94    
Minimum Humidity 34    
Precipitation  
Precipitation 0.00 in - - ()
Sea Level Pressure  
Sea Level Pressure 30.02 in    
Wind  
Wind Speed 4 mph ()    
Max Wind Speed 7 mph    
Max Gust Speed -    
Visibility 12.0 miles    
Events      
Averages and records for this station are not official NWS values.
T = Trace of Precipitation, MM = Missing Value Source: Averaged Metar Reports

Daily Weather History Graph

Daily Weather History Graph

Search for Another Location

Airport or City:

Trip Planner

Search our weather history database for the weather conditions in past years. The results will help you decide how hot, cold, wet, or windy it might be!

Date:

Astronomy

Oct. 04, 2012 Rise Set
Actual Time 7:35 AM WEST 7:13 PM WEST
Civil Twilight 7:08 AM WEST 7:40 PM WEST
Nautical Twilight 6:37 AM WEST 8:11 PM WEST
Astronomical Twilight 6:06 AM WEST 8:41 PM WEST
Moon 9:42 PM WEST (10/4) 11:37 AM WEST (10/4)
Length of Visible Light 12h 31m
Length of Day
11h 38m
Waning Gibbous, 83% of the Moon is Illuminated
Oct 4
Waning Gibbous
Oct 8
Last Quarter
Oct 15
New
Oct 22
First Quarter
Oct 29
Full

Hourly Weather History & Observations

Time (WEST) Temp. Dew Point Humidity Pressure Visibility Wind Dir Wind Speed Gust Speed Precip Events Conditions
12:00 AM 64.4 °F 55.4 °F 73% 30.06 in - North 4.6 mph - N/A   Clear
1:00 AM 62 °F 56 °F 75% 30.08 in 12 mi East 4.5 mph - -  
1:00 AM 62.6 °F 55.4 °F 77% 30.06 in - East 3.5 mph - N/A   Clear
2:00 AM 59.0 °F 55.4 °F 88% 30.06 in - NE 3.5 mph - N/A   Clear
3:00 AM 59.0 °F 55.4 °F 88% 30.06 in - East 4.6 mph - N/A   Clear
4:00 AM 59.0 °F 53.6 °F 82% 30.06 in - ENE 5.8 mph - N/A   Clear
5:00 AM 57.2 °F 53.6 °F 88% 30.04 in - NE 3.5 mph - N/A   Clear
6:00 AM 55.4 °F 51.8 °F 88% 30.04 in - SE 3.5 mph - N/A   Clear
7:00 AM 54 °F 51 °F 87% 30.05 in 12 mi East 4.5 mph - -  
7:00 AM 53.6 °F 51.8 °F 94% 30.04 in - East 4.6 mph - N/A   Clear
8:00 AM 53.6 °F 50.0 °F 88% 30.04 in - ENE 5.8 mph - N/A   Clear
9:00 AM 60.8 °F 55.4 °F 82% 30.06 in - SE 2.3 mph - N/A   Clear
10:00 AM 62.6 °F 55.4 °F 77% 30.06 in - NE 4.6 mph - N/A   Clear
11:00 AM 66.2 °F 55.4 °F 68% 30.06 in - NNE 5.8 mph - N/A   Clear
12:00 PM 68.0 °F 57.2 °F 68% 30.04 in - NNE 6.9 mph - N/A   Clear
1:00 PM 71 °F 52 °F 40% 30.05 in 12 mi NNE 6.7 mph - -   Clear
1:00 PM 71.6 °F 51.8 °F 50% 30.04 in - NNE 6.9 mph - N/A   Clear
2:00 PM 75.2 °F 53.6 °F 47% 30.01 in - North 5.8 mph - N/A   Clear
3:00 PM 77.0 °F 51.8 °F 41% 30.01 in - NNW 5.8 mph - N/A   Clear
4:00 PM 78.8 °F 51.8 °F 39% 29.98 in - North 3.5 mph - N/A   Clear
5:00 PM 80.6 °F 50.0 °F 34% 29.95 in - North 5.8 mph - N/A   Clear
6:00 PM 77.0 °F 50.0 °F 39% 29.95 in - WNW 5.8 mph - N/A   Clear
7:00 PM 73 °F 53 °F 39% 29.98 in 12 mi WNW 6.7 mph - -   Clear
7:00 PM 73.4 °F 53.6 °F 50% 29.98 in - North - - N/A   Clear
8:00 PM 69.8 °F 53.6 °F 56% 29.95 in - West 5.8 mph - N/A   Clear
9:00 PM 68.0 °F 57.2 °F 68% 29.95 in - Variable 1.2 mph - N/A   Clear
10:00 PM 66.2 °F 55.4 °F 68% 29.98 in - Variable 1.2 mph - N/A   Clear
11:00 PM 64.4 °F 55.4 °F 73% 29.98 in - Variable 3.5 mph - N/A   Clear